Location: Gugi
(45.4667°N, 11.1000°E)
Time: 03:46:44
(UTC+00:00)

SL-16 R/B - Visible Passes

Search period start: 28 February 2020 00:00
Search period end: 09 March 2020 00:00
Orbit: 843 x 846 km, 71.0° (Epoch: 27 February)

Date Brightness Start Highest point End Pass type
(mag) Time Alt. Az. Time Alt. Az. Time Alt. Az.
01 Mar 4.4 05:20:21 10° N 05:24:56 24° NE 05:29:28 10° ESE visible
02 Mar 4.4 05:06:05 10° N 05:10:36 24° NE 05:15:06 10° E visible
03 Mar 4.5 04:51:49 10° N 04:56:16 23° NE 05:00:42 10° E visible
04 Mar 4.5 04:37:33 10° N 04:41:57 22° NE 04:46:18 10° E visible
05 Mar 4.6 04:23:17 10° N 04:27:36 22° NE 04:31:54 10° E visible
06 Mar 4.6 04:09:01 10° N 04:13:16 21° NE 04:17:30 10° E visible
07 Mar 4.7 03:54:45 10° N 03:58:56 20° NE 04:03:06 10° E visible
08 Mar 4.7 03:40:30 10° N 03:44:36 20° NE 03:48:42 10° E visible
08 Mar 4.0 18:35:22 10° SSE 18:46:37 - NE 18:36:07 13° SE visible
08 Mar 4.4 20:17:31 10° SW 20:28:19 12° NNE 20:28:46 10° NNE visible
08 Mar 5.0 22:10:00 13° NNW 22:10:00 13° NNW 22:11:19 10° N visible
